Volver al catálogo

KUIPER-00522

ActivoComunicacionesLEO
NORAD 69602·PAYLOAD·🇺🇸 United States

Lanzado Jun 17, 2026 desde Guiana Space Centre

Loading…

Próximos Pases (próximas 24 horas)

TLE

ActualizadoSource: CelesTrak SupGP

Época: Sep 14, 2026, 22:12 UTC

1 69602C 26140L   26257.92508102 -.00726210  00000+0 -78340-1 0  2574
2 69602  51.8988 329.0320 0016082 117.1759 157.5369 14.88543506    12

Sigue KUIPER-00522 en tiempo real con AllMySat

Download on the App Store